Home > Weather > Stendal > Past weeks

Flag for Germany Past Weather in Stendal, Saxony-Anhalt, Germany — Yesterday and Last 2 Weeks

Now
72 °F

Broken clouds.


Feels Like: 76 °F
Forecast: 57 / 74 °F
Wind: 12 mph from Southwest

Location: Mecklenburg-Vorpommern - Parchim

Current Time: Jul 30, 2016 at 1:15:00 PM

Latest Report: Jul 30, 2016 at 12:20 PM


Visibility: N/A

Pressure: 29.83 "Hg

Humidity: 61%

Dew Point: 57 °F

Location of StendalLocation

Past Weather in Stendal — Graph

°F

Stendal Temperature Yesterday

Maximum temperature yesterday: 75 °F (at 3:20 PM)
Minimum temperature yesterday: 63 °F (at 6:20 AM)
Average temperature yesterday: 70 °F

High & Low Weather Summary for the Past Weeks

 TemperatureHumidityPressure
High86 °F (Jul 21, 5:20 PM)100% (Jul 16, 6:20 AM)30.21 "Hg (Jul 16, 6:20 AM)
Low48 °F (Jul 16, 6:20 AM)25% (Jul 22, 3:20 PM)29.83 "Hg (Jul 29, 1:20 PM)
Average70 °F67%30.05 "Hg
* Reported Jul 15 11:20 AM — Jul 30 11:50 AM, Stendal, Weather by CustomWeather, © 2016

Note: Actual official high and low records may vary slightly from our data, if they occured in-between our weather recording intervals... More about our weather records

Advertising

Stendal Weather History for the Previous 24 Hours

Scroll right to see more
 ConditionsComfort  
Time TempWeatherWind HumidityBarometerVisibility
11:50 AM
Sat, Jul 30
70 °FPartly sunny.14 mph69%29.83 "HgN/A
11:20 AM70 °FBroken clouds.12 mph69%29.83 "HgN/A
10:50 AM70 °FPartly sunny.13 mph69%29.83 "HgN/A
10:20 AM70 °FScattered clouds.12 mph69%29.83 "HgN/A
9:50 AM70 °FScattered clouds.14 mph69%29.83 "HgN/A
9:20 AM66 °FScattered clouds.13 mph78%29.83 "HgN/A
8:50 AM66 °FSunny.10 mph83%29.83 "Hg10 mi
8:20 AM64 °FScattered clouds.10 mph83%29.83 "HgN/A
7:50 AM64 °FSunny.9 mph83%29.83 "Hg10 mi
7:20 AM63 °FPartly sunny.7 mph88%29.83 "HgN/A
6:50 AM63 °FPartly sunny.7 mph88%29.83 "HgN/A
6:20 AM63 °FClear.6 mph88%29.83 "Hg10 mi
6:50 PM
Fri, Jul 29
73 °FPartly sunny.9 mph61%29.83 "HgN/A
6:20 PM73 °FScattered clouds.9 mph57%29.83 "HgN/A
5:50 PM73 °FPartly sunny.10 mph57%29.83 "HgN/A
5:20 PM75 °FPartly sunny.13 mph57%29.83 "HgN/A
4:50 PM73 °FPartly sunny.13 mph57%29.83 "HgN/A
4:20 PM75 °FPartly sunny.13 mph57%29.83 "HgN/A
3:50 PM73 °FPartly sunny.13 mph57%29.83 "HgN/A
3:20 PM75 °FBroken clouds.10 mph54%29.83 "HgN/A
2:50 PM72 °FPartly sunny.13 mph61%29.83 "HgN/A
2:20 PM73 °FPartly sunny.12 mph57%29.83 "HgN/A
1:50 PM73 °FPartly sunny.16 mph57%29.83 "HgN/A
1:20 PM73 °FScattered clouds.9 mph61%29.83 "HgN/A
Weather by CustomWeather, © 2016

See weather overviewHow to use our weather pages